Location: Im Fang
(46.6019°N, 7.2397°E)
Time: 10:09:47
(UTC+00:00)

N. Korean satellite - Visible Passes

Search period start: 27 February 2021 00:00
Search period end: 09 March 2021 00:00
Orbit: 451 x 503 km, 97.2° (Epoch: 26 February)

Date Brightness Start Highest point End Pass type
(mag) Time Alt. Az. Time Alt. Az. Time Alt. Az.
27 Feb 9.5 04:06:32 10° NE 04:08:55 17° E 04:11:19 10° SE visible
27 Feb 7.2 05:39:10 10° N 05:42:20 33° WNW 05:45:32 10° SW visible
28 Feb 6.4 05:12:12 10° N 05:15:41 72° WNW 05:19:13 10° SSW visible
01 Mar 7.4 04:45:31 10° NNE 04:48:57 50° E 04:52:25 10° S visible
02 Mar 9.0 04:19:11 10° NE 04:22:06 24° E 04:25:03 10° SSE visible
03 Mar 9.9 03:53:38 10° ENE 03:55:10 12° E 03:56:41 10° ESE visible
03 Mar 6.7 05:25:19 10° N 05:28:44 48° WNW 05:32:11 10° SSW visible
04 Mar 6.7 04:58:28 10° NNE 05:02:01 76° ESE 05:05:36 10° S visible
05 Mar 8.3 04:31:56 10° NNE 04:35:13 34° E 04:38:31 10° SSE visible
06 Mar 9.6 04:05:50 10° NE 04:08:18 17° E 04:10:46 10° SE visible
07 Mar 6.5 05:11:28 10° N 05:15:01 73° WNW 05:18:37 10° SSW visible
08 Mar 7.5 04:44:45 10° NNE 04:48:15 51° E 04:51:46 10° S visible
